Time,TemperatureF,DewpointF,PressureIn,WindDirection,WindDirectionDegrees,WindSpeedMPH,WindSpeedGustMPH,Humidity,HourlyPrecipIn,Conditions,Clouds,dailyrainin,SolarRadiationWatts/m^2,SoftwareType,DateUTC
2013-01-05 00:00:00,36.9,21.3,30.32,NNW,328,4.0,11.0,53,0.00,,,0.00,0,Wunderground v.1.15,2013-01-05 05:00:00,
2013-01-05 00:02:00,36.9,21.3,30.32,NNW,330,4.0,11.0,53,0.00,,,0.00,0,Wunderground v.1.15,2013-01-05 05:02:00,
2013-01-05 00:08:00,36.8,21.7,30.32,NW,313,3.0,11.0,54,0.00,,,0.00,0,Wunderground v.1.15,2013-01-05 05:08:00,
2013-01-05 00:12:00,36.5,21.4,30.32,NW,306,2.0,2.0,54,0.00,,,0.00,0,Wunderground v.1.15,2013-01-05 05:12:00,
2013-01-05 00:18:00,36.3,21.2,30.32,NW,325,3.0,5.0,54,0.00,,,0.00,0,Wunderground v.1.15,2013-01-05 05:18:00,
2013-01-05 00:24:00,36.2,21.6,30.32,NW,319,3.0,5.0,55,0.00,,,0.00,0,Wunderground v.1.15,2013-01-05 05:24:00,
2013-01-05 00:30:00,36.2,21.6,30.32,NNW,329,4.0,4.0,55,0.00,,,0.00,0,Wunderground v.1.15,2013-01-05 05:30:00,
2013-01-05 00:36:00,36.0,21.4,30.32,NW,312,4.0,5.0,55,0.00,,,0.00,0,Wunderground v.1.15,2013-01-05 05:36:00,
2013-01-05 00:42:00,35.9,21.3,30.32,NW,325,4.0,6.0,55,0.00,,,0.00,0,Wunderground v.1.15,2013-01-05 05:42:00,
2013-01-05 00:48:00,35.9,21.3,30.33,WNW,288,3.0,6.0,55,0.00,,,0.00,0,Wunderground v.1.15,2013-01-05 05:48:00,
2013-01-05 00:54:00,35.8,21.6,30.33,NNW,332,2.0,3.0,56,0.00,,,0.00,0,Wunderground v.1.15,2013-01-05 05:54:00,
2013-01-05 01:00:00,35.5,21.3,30.32,NW,305,2.0,5.0,56,0.00,,,0.00,0,Wunderground v.1.15,2013-01-05 06:00:00,
2013-01-05 01:06:00,35.3,21.2,30.32,NW,311,2.0,5.0,56,0.00,,,0.00,0,Wunderground v.1.15,2013-01-05 06:06:00,
2013-01-05 01:12:00,35.2,21.5,30.32,WNW,292,2.0,2.0,57,0.00,,,0.00,0,Wunderground v.1.15,2013-01-05 06:12:00,
2013-01-05 01:18:00,34.9,21.2,30.33,NW,313,2.0,5.0,57,0.00,,,0.00,0,Wunderground v.1.15,2013-01-05 06:18:00,
2013-01-05 01:24:00,34.9,21.6,30.33,NW,304,3.0,5.0,58,0.00,,,0.00,0,Wunderground v.1.15,2013-01-05 06:24:00,
2013-01-05 01:30:00,34.6,21.7,30.33,West,267,3.0,3.0,59,0.00,,,0.00,0,Wunderground v.1.15,2013-01-05 06:30:00,
2013-01-05 01:36:00,34.1,21.7,30.33,WNW,301,3.0,5.0,60,0.00,,,0.00,0,Wunderground v.1.15,2013-01-05 06:36:00,
2013-01-05 01:42:00,34.1,21.7,30.33,NW,316,3.0,4.0,60,0.00,,,0.00,0,Wunderground v.1.15,2013-01-05 06:42:00,
2013-01-05 01:48:00,34.3,21.8,30.33,NNW,328,3.0,7.0,60,0.00,,,0.00,0,Wunderground v.1.15,2013-01-05 06:48:00,
2013-01-05 01:54:00,34.3,21.8,30.33,NW,319,3.0,3.0,60,0.00,,,0.00,0,Wunderground v.1.15,2013-01-05 06:54:00,
2013-01-05 02:00:00,34.3,21.8,30.33,West,261,2.0,2.0,60,0.00,,,0.00,0,Wunderground v.1.15,2013-01-05 07:00:00,
2013-01-05 02:06:00,34.3,21.8,30.33,WNW,284,3.0,4.0,60,0.00,,,0.00,0,Wunderground v.1.15,2013-01-05 07:06:00,
2013-01-05 02:12:00,34.1,22.0,30.33,WNW,301,3.0,5.0,61,0.00,,,0.00,0,Wunderground v.1.15,2013-01-05 07:12:00,
2013-01-05 02:18:00,34.0,21.6,30.33,WNW,287,3.0,5.0,60,0.00,,,0.00,0,Wunderground v.1.15,2013-01-05 07:18:00,
2013-01-05 02:24:00,34.0,22.0,30.33,WNW,292,2.0,2.0,61,0.00,,,0.00,0,Wunderground v.1.15,2013-01-05 07:24:00,
2013-01-05 02:30:00,33.8,21.8,30.33,NNW,328,2.0,5.0,61,0.00,,,0.00,0,Wunderground v.1.15,2013-01-05 07:30:00,
2013-01-05 02:36:00,33.5,21.9,30.33,NW,316,2.0,5.0,62,0.00,,,0.00,0,Wunderground v.1.15,2013-01-05 07:36:00,
2013-01-05 02:42:00,33.5,21.9,30.33,WNW,301,3.0,5.0,62,0.00,,,0.00,0,Wunderground v.1.15,2013-01-05 07:42:00,
2013-01-05 02:48:00,33.7,22.1,30.33,WNW,302,3.0,5.0,62,0.00,,,0.00,0,Wunderground v.1.15,2013-01-05 07:48:00,
2013-01-05 02:54:00,33.8,22.1,30.33,NW,311,3.0,3.0,62,0.00,,,0.00,0,Wunderground v.1.15,2013-01-05 07:54:00,
2013-01-05 03:00:00,33.7,22.1,30.34,WNW,298,3.0,3.0,62,0.00,,,0.00,0,Wunderground v.1.15,2013-01-05 08:00:00,
2013-01-05 03:06:00,33.5,21.9,30.34,WNW,299,3.0,3.0,62,0.00,,,0.00,0,Wunderground v.1.15,2013-01-05 08:06:00,
2013-01-05 03:12:00,33.4,22.1,30.34,WNW,296,3.0,3.0,63,0.00,,,0.00,0,Wunderground v.1.15,2013-01-05 08:12:00,
2013-01-05 03:18:00,33.4,22.1,30.34,NW,322,3.0,7.0,63,0.00,,,0.00,0,Wunderground v.1.15,2013-01-05 08:18:00,
2013-01-05 03:24:00,33.2,22.0,30.34,NNW,332,3.0,5.0,63,0.00,,,0.00,0,Wunderground v.1.15,2013-01-05 08:24:00,
2013-01-05 03:30:00,33.2,22.3,30.34,West,275,2.0,4.0,64,0.00,,,0.00,0,Wunderground v.1.15,2013-01-05 08:30:00,
2013-01-05 03:36:00,32.9,22.0,30.34,NW,308,2.0,4.0,64,0.00,,,0.00,0,Wunderground v.1.15,2013-01-05 08:36:00,
2013-01-05 03:42:00,32.7,21.9,30.34,WNW,287,2.0,3.0,64,0.00,,,0.00,0,Wunderground v.1.15,2013-01-05 08:42:00,
2013-01-05 03:48:00,32.4,21.9,30.34,West,274,2.0,3.0,65,0.00,,,0.00,0,Wunderground v.1.15,2013-01-05 08:48:00,
2013-01-05 03:54:00,32.2,22.1,30.34,West,280,2.0,4.0,66,0.00,,,0.00,0,Wunderground v.1.15,2013-01-05 08:54:00,
2013-01-05 04:00:00,32.2,22.1,30.35,WNW,285,3.0,3.0,66,0.00,,,0.00,0,Wunderground v.1.15,2013-01-05 09:00:00,
2013-01-05 04:06:00,32.2,22.1,30.35,WNW,298,3.0,5.0,66,0.00,,,0.00,0,Wunderground v.1.15,2013-01-05 09:06:00,
2013-01-05 04:12:00,32.2,22.1,30.35,NW,313,2.0,3.0,66,0.00,,,0.00,0,Wunderground v.1.15,2013-01-05 09:12:00,
2013-01-05 04:18:00,31.9,21.8,30.35,NW,322,2.0,3.0,66,0.00,,,0.00,0,Wunderground v.1.15,2013-01-05 09:18:00,
2013-01-05 04:24:00,31.8,21.7,30.35,NW,309,2.0,2.0,66,0.00,,,0.00,0,Wunderground v.1.15,2013-01-05 09:24:00,
2013-01-05 04:30:00,31.8,22.1,30.35,WNW,299,2.0,2.0,67,0.00,,,0.00,0,Wunderground v.1.15,2013-01-05 09:30:00,
2013-01-05 04:36:00,31.8,22.1,30.35,NW,306,1.0,2.0,67,0.00,,,0.00,0,Wunderground v.1.15,2013-01-05 09:36:00,
2013-01-05 04:42:00,31.6,21.9,30.35,NW,306,1.0,2.0,67,0.00,,,0.00,0,Wunderground v.1.15,2013-01-05 09:42:00,
2013-01-05 04:48:00,31.3,22.0,30.34,WNW,288,2.0,5.0,68,0.00,,,0.00,0,Wunderground v.1.15,2013-01-05 09:48:00,
2013-01-05 04:54:00,31.0,21.7,30.34,WNW,288,2.0,2.0,68,0.00,,,0.00,0,Wunderground v.1.15,2013-01-05 09:54:00,
2013-01-05 05:00:00,30.7,21.4,30.34,WNW,288,1.0,1.0,68,0.00,,,0.00,0,Wunderground v.1.15,2013-01-05 10:00:00,
2013-01-05 05:06:00,30.6,21.6,30.34,WNW,288,1.0,2.0,69,0.00,,,0.00,0,Wunderground v.1.15,2013-01-05 10:06:00,
2013-01-05 05:12:00,30.3,21.7,30.34,WNW,288,1.0,2.0,70,0.00,,,0.00,0,Wunderground v.1.15,2013-01-05 10:12:00,
2013-01-05 05:18:00,30.0,21.7,30.34,WNW,288,1.0,2.0,71,0.00,,,0.00,0,Wunderground v.1.15,2013-01-05 10:18:00,
2013-01-05 05:24:00,29.7,21.8,30.34,WNW,288,2.0,3.0,72,0.00,,,0.00,0,Wunderground v.1.15,2013-01-05 10:24:00,
2013-01-05 05:30:00,29.5,21.6,30.35,WNW,288,2.0,2.0,72,0.00,,,0.00,0,Wunderground v.1.15,2013-01-05 10:30:00,
2013-01-05 05:36:00,29.4,21.8,30.35,WNW,288,2.0,2.0,73,0.00,,,0.00,0,Wunderground v.1.15,2013-01-05 10:36:00,
2013-01-05 05:48:00,29.8,22.2,30.36,NW,323,3.0,5.0,73,0.00,,,0.00,0,Wunderground v.1.15,2013-01-05 10:48:00,
2013-01-05 05:54:00,30.0,22.1,30.36,NW,309,2.0,3.0,72,0.00,,,0.00,0,Wunderground v.1.15,2013-01-05 10:54:00,
2013-01-05 06:00:00,29.8,21.9,30.37,NW,316,2.0,2.0,72,0.00,,,0.00,0,Wunderground v.1.15,2013-01-05 11:00:00,
2013-01-05 06:06:00,30.0,22.1,30.37,WNW,299,3.0,5.0,72,0.00,,,0.00,0,Wunderground v.1.15,2013-01-05 11:06:00,
2013-01-05 06:12:00,30.1,21.8,30.37,NW,320,3.0,5.0,71,0.00,,,0.00,0,Wunderground v.1.15,2013-01-05 11:12:00,
2013-01-05 06:18:00,30.6,22.3,30.37,NNW,330,3.0,5.0,71,0.00,,,0.00,0,Wunderground v.1.15,2013-01-05 11:18:00,
2013-01-05 06:24:00,30.6,22.3,30.37,WNW,299,3.0,4.0,71,0.00,,,0.00,0,Wunderground v.1.15,2013-01-05 11:24:00,
2013-01-05 06:30:00,30.7,22.1,30.36,North,359,2.0,4.0,70,0.00,,,0.00,0,Wunderground v.1.15,2013-01-05 11:30:00,
2013-01-05 06:36:00,30.7,22.1,30.36,NNE,27,2.0,4.0,70,0.00,,,0.00,0,Wunderground v.1.15,2013-01-05 11:36:00,
2013-01-05 06:42:00,30.6,22.0,30.36,NNE,27,1.0,2.0,70,0.00,,,0.00,0,Wunderground v.1.15,2013-01-05 11:42:00,
2013-01-05 06:48:00,30.3,22.0,30.36,NNE,25,0.0,2.0,71,0.00,,,0.00,0,Wunderground v.1.15,2013-01-05 11:48:00,
2013-01-05 06:54:00,30.1,21.8,30.36,NNE,27,0.0,0.0,71,0.00,,,0.00,0,Wunderground v.1.15,2013-01-05 11:54:00,
2013-01-05 07:00:00,29.7,21.8,30.35,NNE,27,0.0,2.0,72,0.00,,,0.00,0,Wunderground v.1.15,2013-01-05 12:00:00,
2013-01-05 07:06:00,29.5,21.9,30.35,NNE,27,2.0,3.0,73,0.00,,,0.00,0,Wunderground v.1.15,2013-01-05 12:06:00,
2013-01-05 07:12:00,29.3,21.7,30.35,NNE,27,1.0,2.0,73,0.00,,,0.00,0,Wunderground v.1.15,2013-01-05 12:12:00,
2013-01-05 07:18:00,29.1,21.8,30.35,NNE,27,0.0,2.0,74,0.00,,,0.00,5,Wunderground v.1.15,2013-01-05 12:18:00,
2013-01-05 07:24:00,28.7,21.5,30.35,NNE,27,0.0,0.0,74,0.00,,,0.00,5,Wunderground v.1.15,2013-01-05 12:24:00,
2013-01-05 07:30:00,28.4,21.8,30.36,NNE,27,0.0,0.0,76,0.00,,,0.00,7,Wunderground v.1.15,2013-01-05 12:30:00,
2013-01-05 07:36:00,28.1,21.5,30.36,NNE,27,0.0,0.0,76,0.00,,,0.00,11,Wunderground v.1.15,2013-01-05 12:36:00,
2013-01-05 07:42:00,27.8,21.8,30.36,NNE,25,0.0,0.0,78,0.00,,,0.00,12,Wunderground v.1.15,2013-01-05 12:42:00,
2013-01-05 07:48:00,27.5,21.8,30.37,NNE,27,0.0,0.0,79,0.00,,,0.00,14,Wunderground v.1.15,2013-01-05 12:48:00,
2013-01-05 07:54:00,27.3,21.9,30.37,NNE,27,0.0,2.0,80,0.00,,,0.00,16,Wunderground v.1.15,2013-01-05 12:54:00,
2013-01-05 08:00:00,27.3,22.2,30.39,NNE,27,0.0,0.0,81,0.00,,,0.00,19,Wunderground v.1.15,2013-01-05 13:00:00,
2013-01-05 08:06:00,27.3,22.5,30.39,West,275,1.0,2.0,82,0.00,,,0.00,21,Wunderground v.1.15,2013-01-05 13:06:00,
2013-01-05 08:12:00,27.8,23.0,30.39,West,277,2.0,2.0,82,0.00,,,0.00,25,Wunderground v.1.15,2013-01-05 13:12:00,
2013-01-05 08:18:00,28.4,23.0,30.40,West,277,2.0,2.0,80,0.00,,,0.00,26,Wunderground v.1.15,2013-01-05 13:18:00,
2013-01-05 08:24:00,29.0,23.6,30.40,West,275,2.0,2.0,80,0.00,,,0.00,28,Wunderground v.1.15,2013-01-05 13:24:00,
2013-01-05 08:30:00,29.8,23.8,30.41,West,275,2.0,2.0,78,0.00,,,0.00,30,Wunderground v.1.15,2013-01-05 13:30:00,
2013-01-05 08:36:00,30.6,23.3,30.41,West,275,2.0,2.0,74,0.00,,,0.00,32,Wunderground v.1.15,2013-01-05 13:36:00,
2013-01-05 08:42:00,31.5,23.5,30.41,NNW,330,1.0,3.0,72,0.00,,,0.00,33,Wunderground v.1.15,2013-01-05 13:42:00,
2013-01-05 08:48:00,32.1,23.8,30.41,NNW,346,1.0,3.0,71,0.00,,,0.00,44,Wunderground v.1.15,2013-01-05 13:48:00,
2013-01-05 08:54:00,32.5,23.5,30.41,NNW,346,1.0,2.0,69,0.00,,,0.00,48,Wunderground v.1.15,2013-01-05 13:54:00,
2013-01-05 09:00:00,33.1,23.7,30.39,NNW,346,0.0,0.0,68,0.00,,,0.00,49,Wunderground v.1.15,2013-01-05 14:00:00,
2013-01-05 09:06:00,33.8,23.6,30.39,North,0,1.0,2.0,66,0.00,,,0.00,197,Wunderground v.1.15,2013-01-05 14:06:00,
2013-01-05 09:12:00,34.7,23.8,30.39,North,359,2.0,4.0,64,0.00,,,0.00,206,Wunderground v.1.15,2013-01-05 14:12:00,
2013-01-05 09:18:00,35.6,23.9,30.39,NW,315,3.0,5.0,62,0.00,,,0.00,206,Wunderground v.1.15,2013-01-05 14:18:00,
2013-01-05 09:24:00,36.6,24.0,30.39,NNW,343,4.0,5.0,60,0.00,,,0.00,255,Wunderground v.1.15,2013-01-05 14:24:00,
2013-01-05 09:30:00,37.3,23.9,30.41,North,353,4.0,4.0,58,0.00,,,0.00,273,Wunderground v.1.15,2013-01-05 14:30:00,
2013-01-05 09:36:00,37.9,24.0,30.41,North,357,3.0,4.0,57,0.00,,,0.00,269,Wunderground v.1.15,2013-01-05 14:36:00,
2013-01-05 09:42:00,38.3,24.4,30.41,NNW,343,3.0,3.0,57,0.00,,,0.00,216,Wunderground v.1.15,2013-01-05 14:42:00,
2013-01-05 09:48:00,38.6,24.2,30.41,ENE,58,4.0,7.0,56,0.00,,,0.00,81,Wunderground v.1.15,2013-01-05 14:48:00,
2013-01-05 09:54:00,38.8,24.0,30.41,North,356,5.0,5.0,55,0.00,,,0.00,91,Wunderground v.1.15,2013-01-05 14:54:00,
2013-01-05 10:00:00,39.2,24.4,30.42,NNE,25,4.0,4.0,55,0.00,,,0.00,127,Wunderground v.1.15,2013-01-05 15:00:00,
2013-01-05 10:06:00,39.6,24.3,30.42,WNW,288,4.0,7.0,54,0.00,,,0.00,297,Wunderground v.1.15,2013-01-05 15:06:00,
2013-01-05 10:12:00,40.1,24.8,30.42,North,350,4.0,4.0,54,0.00,,,0.00,387,Wunderground v.1.15,2013-01-05 15:12:00,
2013-01-05 10:18:00,40.6,24.3,30.43,NNW,346,5.0,7.0,52,0.00,,,0.00,484,Wunderground v.1.15,2013-01-05 15:18:00,
2013-01-05 10:24:00,41.2,24.4,30.43,North,350,5.0,5.0,51,0.00,,,0.00,449,Wunderground v.1.15,2013-01-05 15:24:00,
2013-01-05 10:30:00,41.5,24.2,30.43,WNW,296,4.0,5.0,50,0.00,,,0.00,449,Wunderground v.1.15,2013-01-05 15:30:00,
2013-01-05 10:36:00,41.8,24.0,30.43,North,349,3.0,5.0,49,0.00,,,0.00,324,Wunderground v.1.15,2013-01-05 15:36:00,
2013-01-05 10:48:00,42.5,24.7,30.42,NW,306,2.0,3.0,49,0.00,,,0.00,454,Wunderground v.1.15,2013-01-05 15:48:00,
2013-01-05 10:54:00,42.9,24.5,30.42,NNW,343,2.0,2.0,48,0.00,,,0.00,452,Wunderground v.1.15,2013-01-05 15:54:00,
2013-01-05 11:00:00,43.2,24.8,30.41,North,359,3.0,5.0,48,0.00,,,0.00,352,Wunderground v.1.15,2013-01-05 16:00:00,
2013-01-05 11:06:00,43.3,24.4,30.41,NW,313,2.0,5.0,47,0.00,,,0.00,387,Wunderground v.1.15,2013-01-05 16:06:00,
2013-01-05 11:12:00,43.6,24.7,30.41,North,11,3.0,6.0,47,0.00,,,0.00,364,Wunderground v.1.15,2013-01-05 16:12:00,
2013-01-05 11:18:00,43.9,24.9,30.41,NNE,31,3.0,6.0,47,0.00,,,0.00,484,Wunderground v.1.15,2013-01-05 16:18:00,
2013-01-05 11:24:00,44.6,25.1,30.41,NNE,20,1.0,3.0,46,0.00,,,0.00,472,Wunderground v.1.15,2013-01-05 16:24:00,
2013-01-05 11:30:00,45.4,25.3,30.42,WNW,295,1.0,2.0,45,0.00,,,0.00,422,Wunderground v.1.15,2013-01-05 16:30:00,
2013-01-05 11:36:00,45.2,24.6,30.42,West,280,2.0,2.0,44,0.00,,,0.00,428,Wunderground v.1.15,2013-01-05 16:36:00,
2013-01-05 11:42:00,45.1,23.9,30.42,North,354,2.0,2.0,43,0.00,,,0.00,450,Wunderground v.1.15,2013-01-05 16:42:00,
2013-01-05 11:48:00,45.1,24.5,30.41,NNW,328,2.0,5.0,44,0.00,,,0.00,452,Wunderground v.1.15,2013-01-05 16:48:00,
2013-01-05 11:54:00,45.5,25.4,30.41,NNW,339,2.0,5.0,45,0.00,,,0.00,419,Wunderground v.1.15,2013-01-05 16:54:00,
2013-01-05 12:00:00,46.0,25.8,30.40,NE,38,2.0,2.0,45,0.00,,,0.00,426,Wunderground v.1.15,2013-01-05 17:00:00,
2013-01-05 12:06:00,46.5,26.8,30.40,SE,144,1.0,4.0,46,0.00,,,0.00,422,Wunderground v.1.15,2013-01-05 17:06:00,
2013-01-05 12:12:00,47.1,25.2,30.40,South,169,2.0,2.0,42,0.00,,,0.00,491,Wunderground v.1.15,2013-01-05 17:12:00,
2013-01-05 12:18:00,47.7,25.7,30.39,South,171,1.0,2.0,42,0.00,,,0.00,443,Wunderground v.1.15,2013-01-05 17:18:00,
2013-01-05 12:24:00,47.7,25.7,30.39,SE,140,1.0,1.0,42,0.00,,,0.00,447,Wunderground v.1.15,2013-01-05 17:24:00,
2013-01-05 12:30:00,47.9,25.3,30.38,SE,138,1.0,1.0,41,0.00,,,0.00,399,Wunderground v.1.15,2013-01-05 17:30:00,
2013-01-05 12:36:00,48.2,26.2,30.38,SE,138,1.0,1.0,42,0.00,,,0.00,491,Wunderground v.1.15,2013-01-05 17:36:00,
2013-01-05 12:42:00,48.3,25.1,30.38,SE,140,1.0,3.0,40,0.00,,,0.00,433,Wunderground v.1.15,2013-01-05 17:42:00,
2013-01-05 12:48:00,48.2,24.4,30.37,SE,140,1.0,3.0,39,0.00,,,0.00,384,Wunderground v.1.15,2013-01-05 17:48:00,
2013-01-05 12:54:00,48.0,24.2,30.37,NE,48,1.0,2.0,39,0.00,,,0.00,236,Wunderground v.1.15,2013-01-05 17:54:00,
2013-01-05 13:00:00,47.9,24.1,30.36,NE,51,1.0,1.0,39,0.00,,,0.00,169,Wunderground v.1.15,2013-01-05 18:00:00,
2013-01-05 13:06:00,47.9,24.7,30.36,NE,51,1.0,2.0,40,0.00,,,0.00,215,Wunderground v.1.15,2013-01-05 18:06:00,
2013-01-05 13:12:00,47.9,25.3,30.36,NE,51,1.0,1.0,41,0.00,,,0.00,150,Wunderground v.1.15,2013-01-05 18:12:00,
2013-01-05 13:18:00,47.9,24.1,30.35,NE,51,0.0,2.0,39,0.00,,,0.00,157,Wunderground v.1.15,2013-01-05 18:18:00,
2013-01-05 13:24:00,48.0,24.2,30.35,WNW,288,0.0,1.0,39,0.00,,,0.00,153,Wunderground v.1.15,2013-01-05 18:24:00,
2013-01-05 13:30:00,48.2,25.6,30.34,NNE,24,1.0,1.0,41,0.00,,,0.00,135,Wunderground v.1.15,2013-01-05 18:30:00,
2013-01-05 13:36:00,48.3,24.5,30.34,NNE,16,0.0,1.0,39,0.00,,,0.00,123,Wunderground v.1.15,2013-01-05 18:36:00,
2013-01-05 13:42:00,48.6,26.5,30.34,West,265,0.0,1.0,42,0.00,,,0.00,139,Wunderground v.1.15,2013-01-05 18:42:00,
2013-01-05 13:48:00,48.6,25.3,30.34,NE,45,1.0,1.0,40,0.00,,,0.00,137,Wunderground v.1.15,2013-01-05 18:48:00,
2013-01-05 13:54:00,48.2,25.0,30.34,North,349,1.0,5.0,40,0.00,,,0.00,158,Wunderground v.1.15,2013-01-05 18:54:00,
2013-01-05 14:00:00,48.5,25.8,30.33,SE,128,1.0,1.0,41,0.00,,,0.00,146,Wunderground v.1.15,2013-01-05 19:00:00,
2013-01-05 14:06:00,48.8,25.5,30.33,SE,128,1.0,1.0,40,0.00,,,0.00,169,Wunderground v.1.15,2013-01-05 19:06:00,
2013-01-05 14:12:00,49.1,25.2,30.33,SE,130,1.0,2.0,39,0.00,,,0.00,165,Wunderground v.1.15,2013-01-05 19:12:00,
2013-01-05 14:18:00,49.1,24.6,30.33,SE,130,1.0,2.0,38,0.00,,,0.00,171,Wunderground v.1.15,2013-01-05 19:18:00,
2013-01-05 14:24:00,49.1,25.2,30.33,SE,130,1.0,1.0,39,0.00,,,0.00,181,Wunderground v.1.15,2013-01-05 19:24:00,
2013-01-05 14:30:00,49.2,25.9,30.33,SE,128,1.0,1.0,40,0.00,,,0.00,165,Wunderground v.1.15,2013-01-05 19:30:00,
2013-01-05 14:38:00,49.5,25.5,30.33,SE,128,1.0,1.0,39,0.00,,,0.00,143,Wunderground v.1.15,2013-01-05 19:38:00,
2013-01-05 14:44:00,49.5,25.5,30.33,SE,128,0.0,2.0,39,0.00,,,0.00,123,Wunderground v.1.15,2013-01-05 19:44:00,
2013-01-05 14:50:00,49.4,25.4,30.33,SE,128,0.0,0.0,39,0.00,,,0.00,190,Wunderground v.1.15,2013-01-05 19:50:00,
2013-01-05 14:56:00,49.5,27.3,30.33,SE,128,0.0,2.0,42,0.00,,,0.00,190,Wunderground v.1.15,2013-01-05 19:56:00,
2013-01-05 15:02:00,49.5,26.1,30.32,SE,128,1.0,2.0,40,0.00,,,0.00,160,Wunderground v.1.15,2013-01-05 20:02:00,
2013-01-05 15:08:00,49.8,27.0,30.32,SSW,209,1.0,4.0,41,0.00,,,0.00,171,Wunderground v.1.15,2013-01-05 20:08:00,
2013-01-05 15:14:00,49.8,25.2,30.34,WSW,240,1.0,1.0,38,0.00,,,0.00,135,Wunderground v.1.15,2013-01-05 20:14:00,
2013-01-05 15:20:00,49.8,25.8,30.34,WSW,240,1.0,1.0,39,0.00,,,0.00,130,Wunderground v.1.15,2013-01-05 20:20:00,
2013-01-05 15:26:00,49.5,26.1,30.34,WSW,240,1.0,1.0,40,0.00,,,0.00,130,Wunderground v.1.15,2013-01-05 20:26:00,
2013-01-05 15:32:00,49.4,25.4,30.33,WSW,240,0.0,0.0,39,0.00,,,0.00,116,Wunderground v.1.15,2013-01-05 20:32:00,
2013-01-05 15:38:00,49.4,26.1,30.33,WSW,240,0.0,2.0,40,0.00,,,0.00,116,Wunderground v.1.15,2013-01-05 20:38:00,
2013-01-05 15:44:00,49.4,26.7,30.34,WSW,240,1.0,2.0,41,0.00,,,0.00,83,Wunderground v.1.15,2013-01-05 20:44:00,
2013-01-05 15:50:00,49.1,26.4,30.34,WSW,240,1.0,1.0,41,0.00,,,0.00,106,Wunderground v.1.15,2013-01-05 20:50:00,
2013-01-05 15:56:00,49.1,26.4,30.34,WSW,240,0.0,2.0,41,0.00,,,0.00,106,Wunderground v.1.15,2013-01-05 20:56:00,
2013-01-05 16:02:00,49.1,27.0,30.34,South,174,1.0,2.0,42,0.00,,,0.00,100,Wunderground v.1.15,2013-01-05 21:02:00,
2013-01-05 16:08:00,48.9,26.2,30.34,South,174,1.0,3.0,41,0.00,,,0.00,84,Wunderground v.1.15,2013-01-05 21:08:00,
2013-01-05 16:14:00,48.9,25.6,30.34,South,174,1.0,1.0,40,0.00,,,0.00,84,Wunderground v.1.15,2013-01-05 21:14:00,
2013-01-05 16:20:00,48.9,25.0,30.34,South,174,0.0,0.0,39,0.00,,,0.00,76,Wunderground v.1.15,2013-01-05 21:20:00,
2013-01-05 16:26:00,48.9,25.0,30.34,South,174,0.0,0.0,39,0.00,,,0.00,63,Wunderground v.1.15,2013-01-05 21:26:00,
2013-01-05 16:32:00,48.8,24.9,30.35,South,174,0.0,0.0,39,0.00,,,0.00,48,Wunderground v.1.15,2013-01-05 21:32:00,
2013-01-05 16:38:00,48.6,25.9,30.35,South,174,0.0,0.0,41,0.00,,,0.00,33,Wunderground v.1.15,2013-01-05 21:38:00,
2013-01-05 16:44:00,48.3,25.7,30.35,South,174,0.0,0.0,41,0.00,,,0.00,28,Wunderground v.1.15,2013-01-05 21:44:00,
2013-01-05 16:50:00,48.0,26.5,30.34,South,174,0.0,0.0,43,0.00,,,0.00,21,Wunderground v.1.15,2013-01-05 21:50:00,
2013-01-05 16:56:00,47.7,26.3,30.34,South,174,0.0,0.0,43,0.00,,,0.00,16,Wunderground v.1.15,2013-01-05 21:56:00,
2013-01-05 17:02:00,47.3,28.1,30.34,South,174,0.0,0.0,47,0.00,,,0.00,12,Wunderground v.1.15,2013-01-05 22:02:00,
2013-01-05 17:08:00,46.7,28.5,30.34,South,174,0.0,0.0,49,0.00,,,0.00,9,Wunderground v.1.15,2013-01-05 22:08:00,
2013-01-05 17:14:00,46.2,28.1,30.33,South,174,0.0,0.0,49,0.00,,,0.00,5,Wunderground v.1.15,2013-01-05 22:14:00,
2013-01-05 17:20:00,45.8,28.7,30.33,South,174,0.0,0.0,51,0.00,,,0.00,0,Wunderground v.1.15,2013-01-05 22:20:00,
2013-01-05 17:26:00,45.4,29.3,30.33,South,174,0.0,0.0,53,0.00,,,0.00,0,Wunderground v.1.15,2013-01-05 22:26:00,
2013-01-05 17:32:00,44.9,29.7,30.33,South,174,0.0,0.0,55,0.00,,,0.00,0,Wunderground v.1.15,2013-01-05 22:32:00,
2013-01-05 17:38:00,44.5,29.8,30.33,South,174,0.0,0.0,56,0.00,,,0.00,0,Wunderground v.1.15,2013-01-05 22:38:00,
2013-01-05 17:44:00,44.1,30.3,30.33,South,174,0.0,0.0,58,0.00,,,0.00,0,Wunderground v.1.15,2013-01-05 22:44:00,
2013-01-05 17:50:00,43.8,30.0,30.33,South,174,0.0,0.0,58,0.00,,,0.00,0,Wunderground v.1.15,2013-01-05 22:50:00,
2013-01-05 17:56:00,43.3,30.3,30.33,South,174,0.0,0.0,60,0.00,,,0.00,0,Wunderground v.1.15,2013-01-05 22:56:00,
2013-01-05 18:02:00,42.9,30.0,30.33,South,174,0.0,0.0,60,0.00,,,0.00,0,Wunderground v.1.15,2013-01-05 23:02:00,
2013-01-05 18:08:00,42.6,29.3,30.33,South,174,0.0,1.0,59,0.00,,,0.00,0,Wunderground v.1.15,2013-01-05 23:08:00,
2013-01-05 18:14:00,42.2,29.3,30.33,South,174,2.0,2.0,60,0.00,,,0.00,0,Wunderground v.1.15,2013-01-05 23:14:00,
2013-01-05 18:20:00,41.9,29.4,30.33,South,174,1.0,1.0,61,0.00,,,0.00,0,Wunderground v.1.15,2013-01-05 23:20:00,
2013-01-05 18:26:00,41.8,30.1,30.33,South,174,0.0,1.0,63,0.00,,,0.00,0,Wunderground v.1.15,2013-01-05 23:26:00,
2013-01-05 18:32:00,41.5,30.2,30.34,South,174,0.0,2.0,64,0.00,,,0.00,0,Wunderground v.1.15,2013-01-05 23:32:00,
2013-01-05 18:38:00,41.1,29.5,30.34,South,174,1.0,2.0,63,0.00,,,0.00,0,Wunderground v.1.15,2013-01-05 23:38:00,
2013-01-05 18:44:00,40.8,29.6,30.33,South,174,0.0,1.0,64,0.00,,,0.00,0,Wunderground v.1.15,2013-01-05 23:44:00,
2013-01-05 18:50:00,40.3,29.8,30.33,South,174,0.0,0.0,66,0.00,,,0.00,0,Wunderground v.1.15,2013-01-05 23:50:00,
2013-01-05 18:56:00,39.9,29.8,30.33,South,174,0.0,0.0,67,0.00,,,0.00,0,Wunderground v.1.15,2013-01-05 23:56:00,
2013-01-05 19:02:00,39.6,30.3,30.34,South,174,0.0,0.0,69,0.00,,,0.00,0,Wunderground v.1.15,2013-01-06 00:02:00,
2013-01-05 19:08:00,39.3,30.0,30.34,South,174,0.0,0.0,69,0.00,,,0.00,0,Wunderground v.1.15,2013-01-06 00:08:00,
2013-01-05 19:14:00,39.1,29.8,30.34,South,174,0.0,0.0,69,0.00,,,0.00,0,Wunderground v.1.15,2013-01-06 00:14:00,
2013-01-05 19:20:00,38.8,30.2,30.33,South,174,0.0,0.0,71,0.00,,,0.00,0,Wunderground v.1.15,2013-01-06 00:20:00,
2013-01-05 19:26:00,38.5,29.9,30.33,South,174,0.0,0.0,71,0.00,,,0.00,0,Wunderground v.1.15,2013-01-06 00:26:00,
2013-01-05 19:32:00,38.5,29.9,30.33,South,174,0.0,0.0,71,0.00,,,0.00,0,Wunderground v.1.15,2013-01-06 00:32:00,
2013-01-05 19:38:00,38.3,29.7,30.33,South,174,0.0,0.0,71,0.00,,,0.00,0,Wunderground v.1.15,2013-01-06 00:38:00,
2013-01-05 19:44:00,38.0,30.1,30.33,South,174,0.0,0.0,73,0.00,,,0.00,0,Wunderground v.1.15,2013-01-06 00:44:00,
2013-01-05 19:50:00,37.8,29.9,30.33,South,174,0.0,0.0,73,0.00,,,0.00,0,Wunderground v.1.15,2013-01-06 00:50:00,
2013-01-05 19:56:00,37.6,30.1,30.33,South,174,0.0,0.0,74,0.00,,,0.00,0,Wunderground v.1.15,2013-01-06 00:56:00,
2013-01-05 20:02:00,37.3,30.1,30.34,South,174,0.0,0.0,75,0.00,,,0.00,0,Wunderground v.1.15,2013-01-06 01:02:00,
2013-01-05 20:08:00,37.2,30.0,30.34,South,174,0.0,0.0,75,0.00,,,0.00,0,Wunderground v.1.15,2013-01-06 01:08:00,
2013-01-05 20:14:00,37.0,30.1,30.34,South,174,0.0,0.0,76,0.00,,,0.00,0,Wunderground v.1.15,2013-01-06 01:14:00,
2013-01-05 20:20:00,36.8,30.3,30.34,South,174,0.0,0.0,77,0.00,,,0.00,0,Wunderground v.1.15,2013-01-06 01:20:00,
2013-01-05 20:26:00,36.6,30.1,30.34,South,174,0.0,0.0,77,0.00,,,0.00,0,Wunderground v.1.15,2013-01-06 01:26:00,
2013-01-05 20:32:00,36.5,30.0,30.33,South,174,0.0,0.0,77,0.00,,,0.00,0,Wunderground v.1.15,2013-01-06 01:32:00,
2013-01-05 20:38:00,36.5,30.0,30.33,South,174,0.0,0.0,77,0.00,,,0.00,0,Wunderground v.1.15,2013-01-06 01:38:00,
2013-01-05 20:44:00,36.3,30.1,30.32,South,174,0.0,0.0,78,0.00,,,0.00,0,Wunderground v.1.15,2013-01-06 01:44:00,
2013-01-05 20:50:00,36.3,30.1,30.32,South,174,0.0,0.0,78,0.00,,,0.00,0,Wunderground v.1.15,2013-01-06 01:50:00,
2013-01-05 20:56:00,36.2,30.3,30.32,South,174,0.0,0.0,79,0.00,,,0.00,0,Wunderground v.1.15,2013-01-06 01:56:00,
2013-01-05 21:02:00,36.2,30.3,30.33,South,174,0.0,0.0,79,0.00,,,0.00,0,Wunderground v.1.15,2013-01-06 02:02:00,
2013-01-05 21:08:00,36.2,30.3,30.33,South,174,0.0,0.0,79,0.00,,,0.00,0,Wunderground v.1.15,2013-01-06 02:08:00,
2013-01-05 21:14:00,36.2,30.6,30.33,South,174,0.0,0.0,80,0.00,,,0.00,0,Wunderground v.1.15,2013-01-06 02:14:00,
2013-01-05 21:20:00,36.3,31.0,30.33,South,174,0.0,0.0,81,0.00,,,0.00,0,Wunderground v.1.15,2013-01-06 02:20:00,
2013-01-05 21:26:00,36.3,31.0,30.33,South,174,0.0,0.0,81,0.00,,,0.00,0,Wunderground v.1.15,2013-01-06 02:26:00,
2013-01-05 21:32:00,36.3,31.0,30.33,South,174,0.0,0.0,81,0.00,,,0.00,0,Wunderground v.1.15,2013-01-06 02:32:00,
2013-01-05 21:38:00,36.3,31.0,30.33,South,174,0.0,0.0,81,0.00,,,0.00,0,Wunderground v.1.15,2013-01-06 02:38:00,
2013-01-05 21:44:00,36.3,31.0,30.32,South,174,0.0,0.0,81,0.00,,,0.00,0,Wunderground v.1.15,2013-01-06 02:44:00,
2013-01-05 21:50:00,36.5,31.2,30.32,South,174,0.0,0.0,81,0.00,,,0.00,0,Wunderground v.1.15,2013-01-06 02:50:00,
2013-01-05 21:56:00,36.5,31.2,30.32,South,174,0.0,0.0,81,0.00,,,0.00,0,Wunderground v.1.15,2013-01-06 02:56:00,
2013-01-05 22:02:00,36.5,31.5,30.33,South,174,0.0,0.0,82,0.00,,,0.00,0,Wunderground v.1.15,2013-01-06 03:02:00,
2013-01-05 22:08:00,36.5,31.5,30.33,South,174,0.0,0.0,82,0.00,,,0.00,0,Wunderground v.1.15,2013-01-06 03:08:00,
2013-01-05 22:14:00,36.5,31.5,30.32,South,174,0.0,1.0,82,0.00,,,0.00,0,Wunderground v.1.15,2013-01-06 03:14:00,
2013-01-05 22:20:00,36.6,31.6,30.32,South,174,0.0,1.0,82,0.00,,,0.00,0,Wunderground v.1.15,2013-01-06 03:20:00,
2013-01-05 22:26:00,36.8,31.8,30.32,South,174,0.0,0.0,82,0.00,,,0.00,0,Wunderground v.1.15,2013-01-06 03:26:00,
2013-01-05 22:32:00,36.8,31.8,30.33,South,174,0.0,0.0,82,0.00,,,0.00,0,Wunderground v.1.15,2013-01-06 03:32:00,
2013-01-05 22:38:00,36.9,31.9,30.33,South,174,0.0,0.0,82,0.00,,,0.00,0,Wunderground v.1.15,2013-01-06 03:38:00,
2013-01-05 22:44:00,37.0,32.3,30.32,South,174,0.0,2.0,83,0.00,,,0.00,0,Wunderground v.1.15,2013-01-06 03:44:00,
2013-01-05 22:50:00,37.3,32.3,30.32,South,174,1.0,2.0,82,0.00,,,0.00,0,Wunderground v.1.15,2013-01-06 03:50:00,
2013-01-05 22:56:00,37.3,32.3,30.32,South,174,1.0,1.0,82,0.00,,,0.00,0,Wunderground v.1.15,2013-01-06 03:56:00,
2013-01-05 23:02:00,37.5,32.2,30.31,South,174,0.0,0.0,81,0.00,,,0.00,0,Wunderground v.1.15,2013-01-06 04:02:00,
2013-01-05 23:08:00,37.5,32.2,30.31,South,174,0.0,1.0,81,0.00,,,0.00,0,Wunderground v.1.15,2013-01-06 04:08:00,
2013-01-05 23:14:00,37.6,32.3,30.31,South,174,0.0,0.0,81,0.00,,,0.00,0,Wunderground v.1.15,2013-01-06 04:14:00,
2013-01-05 23:20:00,37.8,32.2,30.32,South,174,0.0,0.0,80,0.00,,,0.00,0,Wunderground v.1.15,2013-01-06 04:20:00,
2013-01-05 23:26:00,37.8,31.9,30.32,South,174,1.0,1.0,79,0.00,,,0.00,0,Wunderground v.1.15,2013-01-06 04:26:00,
2013-01-05 23:32:00,38.2,32.3,30.31,South,174,1.0,2.0,79,0.00,,,0.00,0,Wunderground v.1.15,2013-01-06 04:32:00,
2013-01-05 23:38:00,38.5,32.2,30.31,South,174,1.0,2.0,78,0.00,,,0.00,0,Wunderground v.1.15,2013-01-06 04:38:00,
2013-01-05 23:44:00,38.6,32.0,30.31,South,174,1.0,1.0,77,0.00,,,0.00,0,Wunderground v.1.15,2013-01-06 04:44:00,
2013-01-05 23:50:00,38.8,32.2,30.31,South,174,0.0,0.0,77,0.00,,,0.00,0,Wunderground v.1.15,2013-01-06 04:50:00,
2013-01-05 23:56:00,38.9,32.0,30.31,South,174,0.0,2.0,76,0.00,,,0.00,0,Wunderground v.1.15,2013-01-06 04:56:00,